Location: K�ln
(50.9455°N, 6.9544°E)
Time: 16:50:52
(UTC+01:00)

ISS - Pass Details

Date: 14 February 2018
Orbit: 403 x 407 km, 51.6° (Epoch: 21 February)

Event Time Altitude Azimuth Distance (km) Brightness Sun altitude
Rises 18:24:03 0° 279° (W) 2,321 1.6 -6.5°
Reaches altitude 10° 18:27:09 10° 247° (WSW) 1,457 0.6 -7.0°
Maximum altitude 18:28:28 12° 222° (SW) 1,340 -0.3 -7.2°
Drops below altitude 10° 18:29:48 10° 198° (SSW) 1,453 -0.6 -7.4°
Sets 18:32:53 0° 166° (SSE) 2,308 0.0 -7.9°
